Home > Weather > Barysaw > Past weeks

Flag for Belarus Past Weather in Barysaw, Belarus — Yesterday and Last 2 Weeks

Now
81 °F

Passing clouds.


Feels Like: 80 °F
Forecast: 58 / 77 °F
Wind: 10 mph from Southwest

Location: Minsk

Current Time: Aug 27, 2016 at 2:51:29 PM

Latest Report: Aug 27, 2016 at 2:00 PM


Visibility: N/A

Pressure: 30.21 "Hg

Humidity: 34%

Dew Point: 50 °F

Location of BarysawLocation

Past Weather in Barysaw — Graph

°F

Barysaw Temperature Yesterday

Maximum temperature yesterday: 79 °F (at 4:00 PM)
Minimum temperature yesterday: 45 °F (at 6:00 AM)
Average temperature yesterday: 63 °F

High & Low Weather Summary for the Past Weeks

 TemperatureHumidityPressure
High81 °F (Aug 21, 2:00 PM)100% (Aug 13, 1:00 AM)30.30 "Hg (Aug 13, 1:00 AM)
Low39 °F (Aug 13, 5:00 AM)30% (Aug 21, 4:00 PM)29.77 "Hg (Aug 17, 1:00 AM)
Average61 °F75%30.09 "Hg
* Reported Aug 12 1:00 PM — Aug 27 1:30 PM, Barysaw, Weather by CustomWeather, © 2016

Note: Actual official high and low records may vary slightly from our data, if they occured in-between our weather recording intervals... More about our weather records

Advertising

Barysaw Weather History for the Previous 24 Hours

Scroll right to see more
 ConditionsComfort  
Time TempWeatherWind HumidityBarometerVisibility
1:30 PM
Sat, Aug 27
81 °FPassing clouds.10 mph37%30.21 "HgN/A
1:00 PM79 °FPassing clouds.10 mph37%30.21 "HgN/A
12:30 PM79 °FPassing clouds.10 mph39%30.21 "HgN/A
12:00 PM79 °FClear.10 mph39%30.21 "Hg4 mi
11:30 AM77 °FPassing clouds.8 mph44%30.24 "HgN/A
11:00 AM75 °FPassing clouds.8 mph47%30.24 "HgN/A
10:30 AM73 °FPassing clouds.8 mph53%30.24 "HgN/A
10:00 AM70 °FPassing clouds.8 mph57%30.24 "HgN/A
9:30 AM68 °FPassing clouds.6 mph64%30.24 "HgN/A
9:00 AM64 °FPassing clouds.6 mph68%30.24 "HgN/A
8:30 AM63 °FPassing clouds.6 mph73%30.24 "HgN/A
8:00 AM61 °FPassing clouds.6 mph72%30.24 "HgN/A
7:30 AM59 °FSunny.6 mph77%30.24 "Hg10 mi
7:00 AM57 °FClear.3 mph82%30.24 "Hg10 mi
6:30 AM55 °FPassing clouds.3 mph88%30.24 "HgN/A
6:00 AM55 °FClear.3 mph88%30.24 "Hg10 mi
5:30 AM57 °FClear.3 mph82%30.24 "Hg10 mi
5:00 AM55 °FLight fog.3 mph88%30.24 "HgN/A
4:30 AM55 °FLight fog.3 mph88%30.24 "HgN/A
4:00 AM57 °FLight fog.1 mph82%30.24 "HgN/A
3:50 AM57 °FLight fog.3 mph82%30.24 "HgN/A
3:30 AM57 °FClear.3 mph82%30.24 "Hg10 mi
3:00 AM57 °FClear.3 mph88%30.24 "Hg10 mi
2:30 AM54 °FClear.1 mph94%30.24 "Hg10 mi
2:00 AM54 °FClear.No wind94%30.24 "Hg10 mi
1:30 AM54 °FClear.No wind94%30.24 "Hg10 mi
1:00 AM55 °FClear.No wind88%30.24 "Hg10 mi
12:30 AM57 °FClear.No wind88%30.24 "Hg10 mi
12:00 AM57 °FClear.No wind88%30.24 "Hg10 mi
11:30 PM
Fri, Aug 26
57 °FClear.No wind88%30.24 "Hg10 mi
11:00 PM59 °FClear.1 mph88%30.21 "Hg10 mi
10:30 PM61 °FClear.1 mph83%30.24 "Hg10 mi
10:00 PM63 °FClear.1 mph83%30.24 "Hg10 mi
9:30 PM63 °FClear.No wind83%30.24 "Hg10 mi
9:00 PM64 °FSunny.No wind78%30.24 "Hg10 mi
8:30 PM66 °FSunny.No wind73%30.24 "Hg10 mi
8:00 PM70 °FSunny.1 mph64%30.24 "Hg10 mi
7:30 PM75 °FSunny.1 mph50%30.24 "Hg10 mi
7:00 PM77 °FPassing clouds.3 mph47%30.24 "HgN/A
6:30 PM77 °FPassing clouds.6 mph42%30.24 "HgN/A
6:00 PM77 °FPassing clouds.6 mph44%30.24 "HgN/A
5:30 PM77 °FPassing clouds.6 mph42%30.24 "HgN/A
5:00 PM79 °FPassing clouds.6 mph42%30.24 "HgN/A
4:30 PM79 °FSunny.3 mph42%30.27 "Hg10 mi
4:00 PM79 °FSunny.3 mph39%30.27 "Hg10 mi
3:30 PM77 °FPassing clouds.6 mph39%30.27 "HgN/A
3:00 PM77 °FPassing clouds.6 mph42%30.27 "HgN/A
2:30 PM77 °FSunny.6 mph44%30.27 "Hg10 mi
2:00 PM75 °FSunny.3 mph50%30.27 "Hg10 mi
Weather by CustomWeather, © 2016

See weather overviewHow to use our weather pages